User: anonymous   Login
Location: Ay?beleni
(36.6500°N, 30.3000°E)
Time: 17:49:58
(UTC+00:00)
Language:

Cosmos 1125 Rocket - Orbit

View from above orbital plane
View from above orbital plane
View from above satellite
View from above satellite

Ground track
Ground track

The orbit data is extracted from the following two-line orbital elements,

1 11511U 79078B   22024.49332058  .00000071  00000-0  32764-4 0  9998
2 11511  74.0363 102.7390 0016859 293.8428  66.0958 14.36958493220247
Epoch (UTC): 24 January 2022 11:50:22
Eccentricity: 0.0016859
inclination: 74.0363°
perigee height: 756 km
apogee height: 780 km
right ascension of ascending node: 102.7390°
argument of perigee: 293.8428°
revolutions per day: 14.36958493
mean anomaly at epoch: 66.0958°
orbit number at epoch: 22024

The dashed part of the orbit path shows where the satellite is in the earth's shadow,  

DLR